User: anonymous   Login
Location: Unspecified
(0.0000°N, 0.0000°E)
Time: 12:12:54
(UTC+02:00)
Language:

Meteor 2-8 Rocket - Orbit

View from above orbital plane
View from above orbital plane
View from above satellite
View from above satellite

Ground track
Ground track

The orbit data is extracted from the following two-line orbital elements,

1 13114U 82025B   14296.84763289  .00000071  00000-0  49675-4 0  5388
2 13114 082.5401 252.4614 0014038 352.5168 066.6172 13.84630763646546
Epoch (UTC): 23 October 2014 20:20:35
Eccentricity: 0.0014038
inclination: 82.5401°
perigee height: 937 km
apogee height: 958 km
right ascension of ascending node: 252.4614°
argument of perigee: 352.5168°
revolutions per day: 13.84630763
mean anomaly at epoch: 66.6172°
orbit number at epoch: 64654

The dashed part of the orbit path shows where the satellite is in the earth's shadow,  

DLR